Regional Weather Roundup
Issued by NWS Little Rock, AR

Home | Current Version | Previous Version | Graphics & Text | Print | Product List | Glossary On
Versions: 1 2 3 4 5 6 7 8 9 10 11 12 13 14 15 16 17 18 19 20 21 22 23 24 25 26 27 28 29 30 31 32 33 34 35 36 37 38 39 40 41 42 43 44 45 46 47 48 49 50
000
ASUS44 KLZK 240605
RWRLZK

WEATHER ROUNDUP FOR ARKANSAS
NATIONAL WEATHER SERVICE LITTLE ROCK AR
100 AM CDT SAT JUN 24 2017

NOTE: "FAIR" INDICATES FEW OR NO CLOUDS BELOW 12,000 FEET WITH NO
SIGNIFICANT WEATHER AND/OR OBSTRUCTIONS TO VISIBILITY.

ARZ001-003-010-029-240700-
NORTHWEST ARKANSAS

CITY           SKY/WX    TMP DP  RH WIND       PRES   REMARKS
FAYETTEVILLE   CLOUDY    64  63  96 CALM      30.07R
6HR MIN TEMP:  63; 6HR MAX TEMP:  76;

FORT SMITH     CLOUDY    72  69  90 CALM      30.03R
6HR MIN TEMP:  72; 6HR MAX TEMP:  80;

HARRISON       CLOUDY    63  63 100 NW3       30.07R
6HR MIN TEMP:  63; 6HR MAX TEMP:  72;

BENTONVILLE    CLOUDY    68  59  73 N7        30.09R
6HR MIN TEMP:  66; 6HR MAX TEMP:  79;

ROGERS         PTCLDY    66  62  87 N6          N/A
6HR MIN TEMP:  64; 6HR MAX TEMP:  78;

SILOAM SPGS    CLOUDY    68  61  77 N10       30.09R
6HR MIN TEMP:  66; 6HR MAX TEMP:  79;

HIGHFILL       CLOUDY    69  61  75 N12       30.08R
6HR MIN TEMP:  66; 6HR MAX TEMP:  80;

$$

ARZ004-005-016-240700-
NORTH CENTRAL ARKANSAS

CITY           SKY/WX    TMP DP  RH WIND       PRES   REMARKS
BATESVILLE     CLOUDY    68  66  94 NW3       29.99S
6HR MIN TEMP:  68; 6HR MAX TEMP:  70; 6HR PCP:  0.01;

FLIPPIN        CLOUDY    64  61  88 CALM      30.02R
6HR MIN TEMP:  64; 6HR MAX TEMP:  72;

MTN HOME       CLOUDY    65  64  97 CALM      30.03R FOG
6HR MIN TEMP:  65; 6HR MAX TEMP:  71;

$$

ARZ040-041-240700-
WEST CENTRAL ARKANSAS

CITY           SKY/WX    TMP DP  RH WIND       PRES   REMARKS
MENA           CLOUDY    73  72  94 NE7       30.03S
MOUNT IDA      CLOUDY    70  68  93 CALM      30.02R FOG
6HR MIN TEMP:  70; 6HR MAX TEMP:  72; 6HR PCP:  0.08;

$$

ARZ009-017-025-026-028-240700-
NORTHEAST ARKANSAS

CITY           SKY/WX    TMP DP  RH WIND       PRES   REMARKS
CORNING        FAIR      70  68  94 NW6       29.97R
JONESBORO      CLOUDY    71  68  90 NW6       29.96R
6HR MIN TEMP:  71; 6HR MAX TEMP:  75;

WALNUT RIDGE   CLOUDY    70  63  78 NW7       29.97R
6HR MIN TEMP:  70; 6HR MAX TEMP:  73;

BLYTHEVILLE    CLOUDY    72  70  93 N6        29.95R
6HR MIN TEMP:  72; 6HR MAX TEMP:  77; 6HR PCP:  0.01;

$$

ARZ022-023-033-042-044-240700-
CENTRAL ARKANSAS

CITY           SKY/WX    TMP DP  RH WIND       PRES   REMARKS
LITTLE ROCK    CLOUDY    71  71 100 W3        29.99R
6HR MIN TEMP:  70; 6HR MAX TEMP:  71; 6HR PCP:  0.03;

JACKSONVILLE   CLOUDY    70  70 100 W5        29.98R
6HR MIN TEMP:  70; 6HR MAX TEMP:  72; 6HR PCP:  0.04;

CONWAY           N/A     72  70  94 CALM      29.99R
SEARCY         CLOUDY    70  69  97 CALM      30.00R
6HR MIN TEMP:  69; 6HR MAX TEMP:  70; 6HR PCP:  0.02;

HOT SPRINGS    CLOUDY    71  70  96 CALM      30.01R
6HR MIN TEMP:  71; 6HR MAX TEMP:  72; 6HR PCP: TRACE;

RUSSELLVILLE   CLOUDY    69  69 100 CALM      30.01R
6HR MIN TEMP:  69; 6HR MAX TEMP:  72;

CLINTON        FAIR      68  68 100 CALM      30.01S
$$

ARZ036-240700-
EAST ARKANSAS

CITY           SKY/WX    TMP DP  RH WIND       PRES   REMARKS
WEST MEMPHIS   MOCLDY    72  72 100 VRB3      29.94R
6HR MIN TEMP:  72; 6HR MAX TEMP:  74; 6HR PCP:  0.08;

$$

ARZ050-053-066-070-073-240700-
SOUTHWEST ARKANSAS

CITY           SKY/WX    TMP DP  RH WIND       PRES   REMARKS
CAMDEN         MOCLDY    70  68  94 CALM      29.99R
TEXARKANA      CLOUDY    72  72 100 N8        29.96R
6HR MIN TEMP:  72; 6HR MAX TEMP:  89; 6HR PCP:  0.47;

EL DORADO      CLOUDY    71  70  96 SE5       29.96R
6HR MIN TEMP:  71; 6HR MAX TEMP:  87; 6HR PCP:  0.02;

DE QUEEN       CLOUDY    73  73 100 NE3       29.97F
6HR MIN TEMP:  73; 6HR MAX TEMP:  82; 6HR PCP: TRACE;

$$

ARZ056-057-069-240700-
SOUTHEAST ARKANSAS

CITY           SKY/WX    TMP DP  RH WIND       PRES   REMARKS
PINE BLUFF     CLOUDY    71  70  96 NW5       29.98R
6HR MIN TEMP:  70; 6HR MAX TEMP:  71; 6HR PCP:  0.21;

STUTTGART      CLOUDY   N/A N/A N/A NW9       29.97S
6HR MIN TEMP:  72; 6HR MAX TEMP:  73; 6HR PCP:  0.11;

MONTICELLO     MOCLDY    71  69  93 CALM      29.97S
6HR MIN TEMP:  71; 6HR MAX TEMP:  84; 6HR PCP:  0.45;


$$





USA.gov is the U.S. government's official web portal to all federal, state and local government web resources and services.